Regional Weather Roundup
Issued by NWS Albany, NY

Home | Current Version | Previous Version | Text Only | Print | Product List | Glossary On
Versions: 1 2 3 4 5 6 7 8 9 10 11 12 13 14 15 16 17 18 19 20 21 22 23 24 25 26 27
000
ASUS41 KALY 241410
RWRALY

NEW YORK STATE HOURLY WEATHER ROUNDUP
NATIONAL WEATHER SERVICE ALBANY NY
1000 AM EDT TUE APR 24 2018

NOTE: "FAIR" INDICATES FEW OR NO CLOUDS BELOW 12,000 FEET WITH NO
SIGNIFICANT WEATHER AND/OR NO OBSTRUCTIONS TO VISIBILITY.

NYZ032-033-038>043-046>054-057>066-NYZ062>081-082-084-241500-
EAST


CITY           SKY/WX    TMP DP  RH WIND       PRES   REMARKS
ALBANY         FAIR      56  31  38 SE6       30.36F
GLENS FALLS    FAIR      54  32  43 SE5       30.35F
POUGHKEEPSIE   FAIR      58  32  37 VRB3      30.38F
NEWBURGH       MOSUNNY   57  28  33 CALM      30.39F
MONTGOMERY     FAIR      58  30  34 S9        30.37F
WHITE PLAINS   FAIR      54  37  52 S9        30.40S
ISLIP          PTSUNNY   58  40  51 S12       30.42S
NEW YORK CITY  PTSUNNY   55  42  61 NE8       30.40F
CENTRAL PARK   FAIR      59  36  42 VRB5      30.43S
$$

NYZ005>009-017-018-044>046-055-056-241500-
CENTRAL


CITY           SKY/WX    TMP DP  RH WIND       PRES   REMARKS
FULTON         FAIR      61  29  29 S18G24    30.27F
SYRACUSE       FAIR      62  26  25 S12G22    30.28F
ROME           FAIR      59  31  34 SE10      30.33F
ELMIRA         FAIR      61  32  33 S15G25    30.27F
BINGHAMTON     FAIR      54  25  32 S10G21    30.30F
MONTICELLO     FAIR      56  27  32 S12       30.37F
$$

NYZ026>034-041>043-087-241500-
NORTH


CITY           SKY/WX    TMP DP  RH WIND       PRES   REMARKS
WATERTOWN      FAIR      62  35  36 SW15G25   30.26S
FORT DRUM      NOT AVBL
OGDENSBURG     FAIR      64  38  39 SW13G20   30.24S
MASSENA        FAIR      63  39  41 SW15      30.24F
SARANAC LAKE   FAIR      57  29  34 SW15G22   30.27F
PLATTSBURGH    FAIR      57  31  37 SE13      30.27F
$$

NYZ001>004-010>016-019>021-085-241500-
WEST


CITY           SKY/WX    TMP DP  RH WIND       PRES   REMARKS
NIAGARA FALLS  FAIR      60  42  51 SW15      30.21F
BUFFALO        PTSUNNY   58  38  47 S12       30.22S
DUNKIRK        LGT RAIN  55  39  54 SE12      30.21F
JAMESTOWN      CLOUDY    50  37  61 S12       30.21F
WELLSVILLE     CLOUDY    54  31  41 S6        30.26F
ROCHESTER      CLOUDY    59  39  47 S13       30.23F
PENN YAN       FAIR      59  26  28 S17       30.26F
$$

             KEY
       WCI = WIND CHILL INDEX
       VSB = VISIBILITY
       HX  = HEAT INDEX
$$




USA.gov is the U.S. government's official web portal to all federal, state and local government web resources and services.